• en Suisse
  • Liste des pays
  • À 7 jours
  • Température de l'eau
  • Carte satellitaire
  • Carte météo
  • Widgets météo
  • user-avatar
    Se connecter

    Météo par heure à Kinshasa

    Ce jour, 19 Juin, Mardi

    Heure Température Précipitation Vent Pression Humidité
    00:00 +23°C° 1,5 mm 2 m/s 708 mmHg 95%
    01:00 +23°C° 0 mm 2 m/s 709 mmHg 94%
    02:00 +21°C° 1,4 mm 2 m/s 709 mmHg 95%
    03:00 +21°C° 1,4 mm 2 m/s 709 mmHg 95%
    04:00 +21°C° 1,4 mm 2 m/s 708 mmHg 95%
    05:00 +21°C° 0,2 mm 2 m/s 709 mmHg 95%
    06:00 +21°C° 0,2 mm 2 m/s 709 mmHg 95%
    07:00 +21°C° 0 mm 2 m/s 709 mmHg 94%
    08:00 +24°C° 0 mm 3 m/s 709 mmHg 87%
    09:00 +25°C° 0 mm 3 m/s 710 mmHg 80%
    10:00 +26°C° 0 mm 3 m/s 710 mmHg 73%
    11:00 +27°C° 0,2 mm 3 m/s 710 mmHg 70%
    12:00 +28°C° 0,2 mm 3 m/s 709 mmHg 66%
    13:00 +28°C° 0 mm 4 m/s 709 mmHg 67%
    14:00 +27°C° 0,2 mm 3 m/s 709 mmHg 70%
    15:00 +27°C° 0,2 mm 3 m/s 708 mmHg 74%
    16:00 +26°C° 0,2 mm 2 m/s 708 mmHg 77%
    17:00 +26°C° 0,3 mm 2 m/s 708 mmHg 81%
    18:00 +25°C° 0,3 mm 1 m/s 708 mmHg 84%
    19:00 +24°C° 0,3 mm 1 m/s 708 mmHg 87%
    20:00 +23°C° 0,4 mm 1 m/s 708 mmHg 88%
    21:00 +23°C° 0,4 mm 1 m/s 709 mmHg 89%
    22:00 +23°C° 0,4 mm 1 m/s 709 mmHg 90%
    23:00 +22°C° 0,9 mm 1 m/s 709 mmHg 92%

    Demain, 20 Juin, Mercredi

    Heure Température Précipitation Vent Pression Humidité
    00:00 +22°C° 0,9 mm 1 m/s 709 mmHg 94%
    01:00 +22°C° 0,9 mm 1 m/s 709 mmHg 97%
    02:00 +22°C° 0,7 mm 1 m/s 709 mmHg 97%
    03:00 +22°C° 0,7 mm 1 m/s 709 mmHg 97%
    04:00 +21°C° 0,7 mm 1 m/s 709 mmHg 98%
    05:00 +22°C° 0 mm 1 m/s 709 mmHg 97%
    06:00 +21°C° 0 mm 2 m/s 709 mmHg 97%
    07:00 +21°C° 0 mm 2 m/s 709 mmHg 96%
    08:00 +23°C° 0 mm 2 m/s 710 mmHg 88%
    09:00 +25°C° 0 mm 2 m/s 710 mmHg 79%
    10:00 +27°C° 0 mm 3 m/s 710 mmHg 70%
    11:00 +27°C° 0,2 mm 3 m/s 710 mmHg 69%
    12:00 +28°C° 0,2 mm 3 m/s 710 mmHg 67%
    13:00 +29°C° 0,2 mm 3 m/s 709 mmHg 66%
    14:00 +28°C° 0,9 mm 2 m/s 709 mmHg 73%
    15:00 +27°C° 0,9 mm 2 m/s 708 mmHg 80%
    16:00 +26°C° 0,9 mm 2 m/s 708 mmHg 88%
    17:00 +25°C° 0,8 mm 1 m/s 708 mmHg 90%
    18:00 +24°C° 0,8 mm 1 m/s 709 mmHg 93%
    19:00 +23°C° 0,8 mm 1 m/s 709 mmHg 96%
    20:00 +22°C° 0,1 mm 1 m/s 709 mmHg 96%
    21:00 +22°C° 0,1 mm 1 m/s 710 mmHg 97%
    22:00 +22°C° 0,1 mm 1 m/s 710 mmHg 97%
    23:00 +21°C° 0 mm 1 m/s 710 mmHg 97%

    Après-demain, 21 Juin, Jeudi

    Heure Température Précipitation Vent Pression Humidité
    00:00 +21°C° 0 mm 1 m/s 710 mmHg 97%
    01:00 +21°C° 0 mm 1 m/s 710 mmHg 98%
    02:00 +21°C° 0 mm 1 m/s 710 mmHg 98%
    03:00 +21°C° 0 mm 1 m/s 709 mmHg 98%
    04:00 +20°C° 0 mm 1 m/s 709 mmHg 98%
    05:00 +21°C° 0 mm 1 m/s 709 mmHg 97%
    06:00 +21°C° 0 mm 1 m/s 710 mmHg 97%
    07:00 +21°C° 0 mm 1 m/s 710 mmHg 96%
    08:00 +24°C° 0 mm 1 m/s 710 mmHg 85%
    09:00 +26°C° 0 mm 2 m/s 711 mmHg 73%
    10:00 +28°C° 0 mm 2 m/s 712 mmHg 62%
    11:00 +30°C° 0 mm 2 m/s 711 mmHg 56%
    12:00 +31°C° 0 mm 2 m/s 711 mmHg 50%
    13:00 +32°C° 0 mm 2 m/s 710 mmHg 44%
    14:00 +32°C° 0 mm 1 m/s 709 mmHg 47%
    15:00 +31°C° 0 mm 1 m/s 709 mmHg 51%
    16:00 +30°C° 0 mm 1 m/s 708 mmHg 55%
    17:00 +29°C° 0 mm 1 m/s 708 mmHg 59%
    18:00 +27°C° 0 mm 1 m/s 709 mmHg 63%
    19:00 +24°C° 0 mm 0 m/s 709 mmHg 67%
    20:00 +25°C° 0 mm 1 m/s 709 mmHg 71%
    21:00 +24°C° 0 mm 1 m/s 710 mmHg 75%
    22:00 +24°C° 0 mm 1 m/s 710 mmHg 78%
    23:00 +23°C° 0 mm 1 m/s 710 mmHg 80%

    22 Juin, Vendredi

    Heure Température Précipitation Vent Pression Humidité
    00:00 +23°C° 0 mm 1 m/s 710 mmHg 82%
    01:00 +23°C° 0 mm 1 m/s 710 mmHg 84%
    02:00 +23°C° 0 mm 1 m/s 709 mmHg 86%
    03:00 +22°C° 0 mm 1 m/s 709 mmHg 87%
    04:00 +22°C° 0 mm 1 m/s 709 mmHg 89%
    05:00 +22°C° 0 mm 1 m/s 710 mmHg 90%
    06:00 +22°C° 0 mm 1 m/s 710 mmHg 90%
    07:00 +21°C° 0 mm 0 m/s 711 mmHg 91%
    08:00 +25°C° 0 mm 1 m/s 711 mmHg 82%
    09:00 +26°C° 0 mm 1 m/s 712 mmHg 74%
    10:00 +28°C° 0 mm 1 m/s 712 mmHg 66%
    11:00 +28°C° 0,7 mm 1 m/s 711 mmHg 70%
    12:00 +28°C° 0,7 mm 1 m/s 711 mmHg 74%
    13:00 +28°C° 0,7 mm 1 m/s 710 mmHg 77%
    14:00 +28°C° 1,3 mm 1 m/s 709 mmHg 79%
    15:00 +28°C° 1,3 mm 1 m/s 709 mmHg 81%
    16:00 +27°C° 1,3 mm 1 m/s 708 mmHg 83%
    17:00 +26°C° 1,1 mm 1 m/s 708 mmHg 87%
    18:00 +24°C° 1,1 mm 1 m/s 709 mmHg 90%
    19:00 +23°C° 1,1 mm 1 m/s 709 mmHg 94%
    20:00 +21°C° 1 mm 0 m/s 710 mmHg 94%
    21:00 +21°C° 1 mm 0 m/s 710 mmHg 94%
    22:00 +21°C° 1 mm 0 m/s 711 mmHg 94%
    23:00 +20°C° 0,4 mm 0 m/s 710 mmHg 95%

    23 Juin, Samedi

    Heure Température Précipitation Vent Pression Humidité
    00:00 +20°C° 0,4 mm 0 m/s 710 mmHg 95%
    01:00 +20°C° 0,4 mm 0 m/s 710 mmHg 96%
    02:00 +20°C° 0,4 mm 0 m/s 709 mmHg 96%
    03:00 +20°C° 0,4 mm 0 m/s 709 mmHg 97%
    04:00 +19°C° 0,4 mm 0 m/s 709 mmHg 97%
    05:00 +20°C° 0,3 mm 0 m/s 709 mmHg 97%
    06:00 +20°C° 0,3 mm 0 m/s 709 mmHg 96%
    07:00 +20°C° 0,3 mm 0 m/s 710 mmHg 96%
    08:00 +23°C° 0,4 mm 1 m/s 710 mmHg 95%
    09:00 +23°C° 0,4 mm 1 m/s 710 mmHg 94%
    10:00 +24°C° 0,4 mm 1 m/s 711 mmHg 93%
    11:00 +25°C° 0,4 mm 1 m/s 710 mmHg 87%
    12:00 +26°C° 0,4 mm 1 m/s 709 mmHg 81%
    13:00 +27°C° 0,4 mm 1 m/s 709 mmHg 76%
    14:00 +27°C° 0,4 mm 1 m/s 708 mmHg 73%
    15:00 +28°C° 0,4 mm 1 m/s 708 mmHg 69%
    16:00 +28°C° 0,4 mm 1 m/s 708 mmHg 66%
    17:00 +27°C° 0,3 mm 1 m/s 708 mmHg 74%
    18:00 +25°C° 0,3 mm 1 m/s 708 mmHg 82%
    19:00 +23°C° 0,3 mm 1 m/s 709 mmHg 89%
    20:00 +23°C° 0 mm 1 m/s 709 mmHg 90%
    21:00 +22°C° 0 mm 1 m/s 709 mmHg 92%
    22:00 +22°C° 0 mm 1 m/s 709 mmHg 93%
    23:00 +22°C° 0 mm 1 m/s 709 mmHg 93%

    24 Juin, Dimanche

    Heure Température Précipitation Vent Pression Humidité
    00:00 +21°C° 0 mm 1 m/s 708 mmHg 94%
    01:00 +21°C° 0 mm 1 m/s 708 mmHg 94%
    02:00 +21°C° 0 mm 1 m/s 708 mmHg 95%
    03:00 +20°C° 0 mm 1 m/s 707 mmHg 95%
    04:00 +18°C° 0 mm 0 m/s 707 mmHg 95%
    05:00 +19°C° 0 mm 0 m/s 708 mmHg 94%
    06:00 +21°C° 0 mm 1 m/s 708 mmHg 93%
    07:00 +22°C° 0 mm 1 m/s 709 mmHg 92%
    08:00 +24°C° 0 mm 1 m/s 709 mmHg 81%
    09:00 +26°C° 0 mm 1 m/s 710 mmHg 71%
    10:00 +29°C° 0 mm 1 m/s 710 mmHg 61%
    11:00 +30°C° 0 mm 1 m/s 709 mmHg 56%
    12:00 +31°C° 0 mm 1 m/s 709 mmHg 50%
    13:00 +33°C° 0 mm 1 m/s 708 mmHg 45%
    14:00 +32°C° 0 mm 1 m/s 708 mmHg 49%
    15:00 +32°C° 0 mm 1 m/s 707 mmHg 54%
    16:00 +29°C° 0 mm 0 m/s 707 mmHg 58%
    17:00 +27°C° 0 mm 0 m/s 707 mmHg 61%
    18:00 +26°C° 0 mm 0 m/s 707 mmHg 65%
    19:00 +24°C° 0 mm 0 m/s 708 mmHg 68%
    20:00 +23°C° 0,1 mm 0 m/s 708 mmHg 71%
    21:00 +23°C° 0,1 mm 0 m/s 708 mmHg 75%
    22:00 +24°C° 0,1 mm 1 m/s 709 mmHg 78%
    23:00 +24°C° 0,4 mm 1 m/s 708 mmHg 83%
    Voir plus